DiskSat-4

operational
NORAD ID: 67222 Int'l Des: 2025-305 Owner: STP Country: US
LEOCIRCULAR

About DiskSat-4

Description loading...

Live Position

Loading 3D Globe...

Upcoming Passes

Altitude History

Altitude vs Time

uPlot chart will show altitude changes over time

Two-Line Element Set

1 67222U 25305D 25352.32421190 .00004130 00000-0 29211-3 0 9999
2 67222 45.0527 320.6724 0008826 241.9782 118.0201 15.06357331 13
Epoch: Dec 18, 2025 • Age: 41 hours

Current Status

Altitude 555.2 km
Velocity 7.59 km/s
Sub-Earth Point -44.13°S, 106.46°E
Launch Date Dec 18, 2025
Age 2 days
Type other

Technical Details

Classification Payload
Mass 3.00 kg
Dry Mass 3.00 kg
Total Mass 3.00 kg
Length 0.03 m
Diameter 1.00 m
Span 1.00 m
Shape Cyl
Manufacturer AERO
Bus Type DiskSat
Phase Status In Orbit
Owner/State STP/US

Large Constellations

Loading constellations...